カタログに戻る

CZ-6A DEB

運用中SSO
NORAD 54557·DEBRIS·🇨🇳 China

打ち上げ Nov 11, 2022 から Taiyuan Satellite Launch Center

Loading…

次のパス (今後24時間)

TLE

最新Source: Space-Track

元期: Sep 14, 2026, 01:35 UTC

1 54557U 22151LH  26257.06630509  .00000506  00000-0  13403-3 0  9993
2 54557  98.5704 310.8589 0132117  28.0223 332.8001 14.48210423202355

AllMySatでCZ-6A DEBをリアルタイム追跡

Download on the App Store